This is the latest recevied weather packets stored in our database for station/object NA9VY-8. If no packets are shown the sender has not sent any weather packets the latest 10 day(s).
| Time | Temp. | Humidity | Pressure | Rain* | Wind** | Luminosity | Snow |
|---|---|---|---|---|---|---|---|
| 1777758932 | 12.78° C | 40% | 1021.8 hPa | 0 mm | - | 385 W/m² | - |
| 1777758629 | 12.78° C | 38% | 1021.6 hPa | 0 mm | - | 263 W/m² | - |
| 1777758326 | 12.78° C | 40% | 1021.7 hPa | 0 mm | - | 358 W/m² | - |
| 1777757720 | 12.78° C | 42% | 1021.5 hPa | 0 mm | - | 429 W/m² | - |
| 1777757418 | 12.22° C | 42% | 1021.8 hPa | 0 mm | - | 138 W/m² | - |
| 1777757116 | 12.78° C | 44% | 1021.7 hPa | 0 mm | - | 144 W/m² | - |
| 1777756814 | 12.22° C | 42% | 1021.7 hPa | 0 mm | - | 109 W/m² | - |
| 1777756509 | 12.78° C | 46% | 1021.8 hPa | 0 mm | - | 128 W/m² | - |
| 1777756207 | 12.78° C | 47% | 1021.8 hPa | 0 mm | - | 603 W/m² | - |
| 1777754691 | 13.33° C | 40% | 1021.6 hPa | 0 mm | - | 154 W/m² | - |
| 1777754389 | 13.33° C | 44% | 1021.5 hPa | 0 mm | - | 537 W/m² | - |
| 1777754086 | 12.78° C | 47% | 1021.8 hPa | 0 mm | - | 451 W/m² | - |
| 1777753782 | 12.78° C | 42% | 1021.8 hPa | 0 mm | - | 166 W/m² | - |
| 1777753478 | 13.33° C | 40% | 1021.8 hPa | 0 mm | - | 650 W/m² | - |
| 1777753177 | 13.33° C | 46% | 1021.9 hPa | 0 mm | - | 270 W/m² | - |
| 1777752872 | 12.78° C | 44% | 1022.1 hPa | 0 mm | - | 240 W/m² | - |
| 1777752570 | 12.78° C | 45% | 1022 hPa | 0 mm | - | 672 W/m² | - |
| 1777752265 | 12.22° C | 43% | 1022.4 hPa | 0 mm | - | 656 W/m² | - |
| 1777751963 | 12.22° C | 46% | 1022.3 hPa | 0 mm | - | 111 W/m² | - |
| 1777751660 | 12.78° C | 43% | 1022.3 hPa | 0 mm | - | 610 W/m² | - |
| 1777751356 | 12.78° C | 43% | 1022.2 hPa | 0 mm | - | 706 W/m² | - |
| 1777750749 | 12.22° C | 44% | 1022.3 hPa | 0 mm | - | 174 W/m² | - |
| 1777750446 | 12.78° C | 44% | 1022.3 hPa | 0 mm | - | 150 W/m² | - |
| 1777750141 | 13.33° C | 45% | 1022.5 hPa | 0 mm | - | 782 W/m² | - |
| 1777749839 | 12.22° C | 45% | 1022.3 hPa | 0 mm | - | 739 W/m² | - |
* Rain latest hour (hover to see other rain measurements)
** Current wind speed in m/s (hover to see current wind gust speed)